WetterOnline ( https://www.wetteronline.de )

Wetter aktuell Gronau

Aktuelles Wetter: Ahaus (46m)

6-stündlich | Neueste Meldungen
Ortszeit Temperatur Wetter
Fr, 23.04. 8:00 1.3° C bedeckt
Fr, 23.04. 2:00 2.6° C leicht bewölkt
Do, 22.04. 20:00 9.3° C wolkig
Do, 22.04. 14:00 9.6° C wolkig
Do, 22.04. 8:00 4.4° C bedeckt
Do, 22.04. 2:00 2.3° C fast wolkenlos
Mi, 21.04. 20:00 9.3° C leicht bewölkt
Mi, 21.04. 14:00 14.4° C fast wolkenlos
Ortszeit Temperatur Wetter
Fr, 23.04. 10:00 6.4° C bedeckt
Fr, 23.04. 9:50 6.4° C bedeckt
Fr, 23.04. 9:40 6.6° C bedeckt
Fr, 23.04. 9:30 6.1° C bedeckt
Fr, 23.04. 9:20 6.1° C bedeckt
Fr, 23.04. 9:10 6.0° C bedeckt
Fr, 23.04. 9:00 5.5° C bedeckt
Fr, 23.04. 8:30 3.8° C bedeckt
Fr, 23.04. 8:00 1.3° C bedeckt
Fr, 23.04. 7:30 -0.3° C bewölkt
Fr, 23.04. 7:00 -1.1° C leicht bewölkt
Ortszeit Relative Feuchte Sichtweite
Fr, 23.04. 8:00 94% 16 km
Fr, 23.04. 2:00 82% 30 km
Do, 22.04. 20:00 54% 45 km
Do, 22.04. 14:00 50% 40 km
Do, 22.04. 8:00 72% 30 km
Do, 22.04. 2:00 79% 30 km
Mi, 21.04. 20:00 50% 45 km
Mi, 21.04. 14:00 44% 35 km
Ortszeit Relative Feuchte Sichtweite
Fr, 23.04. 10:00 68% 45 km
Fr, 23.04. 9:50 68% -
Fr, 23.04. 9:40 69% -
Fr, 23.04. 9:30 70% 35 km
Fr, 23.04. 9:20 70% -
Fr, 23.04. 9:10 74% -
Fr, 23.04. 9:00 79% 35 km
Fr, 23.04. 8:30 86% 29 km
Fr, 23.04. 8:00 94% 16 km
Fr, 23.04. 7:30 94% 12 km
Fr, 23.04. 7:00 96% 8 km
Ortszeit Niederschlagsmenge Niederschlagsart
Fr, 23.04. 8:00 0.0 l/m2 in 12 Std. -
Fr, 23.04. 2:00 0.0 l/m2 in 6 Std. -
Do, 22.04. 20:00 0.0 l/m2 in 12 Std. -
Do, 22.04. 14:00 0.0 l/m2 in 6 Std. -
Do, 22.04. 8:00 0.0 l/m2 in 12 Std. -
Do, 22.04. 2:00 0.0 l/m2 in 6 Std. -
Mi, 21.04. 20:00 0.0 l/m2 in 12 Std. -
Mi, 21.04. 14:00 0.0 l/m2 in 6 Std. -
Ortszeit Niederschlagsmenge Niederschlagsart
Fr, 23.04. 10:00 0.0 l/m2 in 1 Std. -
Fr, 23.04. 9:50 keine Meldung -
Fr, 23.04. 9:40 keine Meldung -
Fr, 23.04. 9:30 0.0 l/m2 in 1 Std. -
Fr, 23.04. 9:20 keine Meldung -
Fr, 23.04. 9:10 keine Meldung -
Fr, 23.04. 9:00 0.0 l/m2 in 1 Std. -
Fr, 23.04. 8:30 0.0 l/m2 in 1 Std. -
Fr, 23.04. 8:00 0.0 l/m2 in 1 Std. -
Fr, 23.04. 7:30 0.0 l/m2 in 1 Std. -
Fr, 23.04. 7:00 0.0 l/m2 in 1 Std. -
Ortszeit Stärke Spitze Richtung
km/h Bft. km/h Grad Sektor
Fr, 23.04. 8:00 0 0 7 - -
Fr, 23.04. 2:00 6 1 26 320° NW
Do, 22.04. 20:00 14 3 32 350° N
Do, 22.04. 14:00 20 4 33 350° N
Do, 22.04. 8:00 7 2 11 300° NW
Do, 22.04. 2:00 6 1 33 300° NW
Mi, 21.04. 20:00 19 3 37 360° N
Mi, 21.04. 14:00 14 3 29 10° N
Ortszeit Stärke Spitze Richtung
km/h Bft. km/h Grad Sektor
Fr, 23.04. 10:00 9 2 17 300° NW
Fr, 23.04. 9:50 9 2 - 300° NW
Fr, 23.04. 9:40 9 2 - 310° NW
Fr, 23.04. 9:30 9 2 15 310° NW
Fr, 23.04. 9:20 9 2 - 310° NW
Fr, 23.04. 9:10 9 2 - 320° NW
Fr, 23.04. 9:00 6 1 11 310° NW
Fr, 23.04. 8:30 6 1 7 290° W
Fr, 23.04. 8:00 0 0 7 - -
Fr, 23.04. 7:30 4 1 7 250° W
Fr, 23.04. 7:00 2 1 6 210° SW
Ortszeit Untergrenze Bedeckung Gattung
total tief tief mittel hoch
Fr, 23.04. 8:00 780 m 8/8 8/8 - - -
Fr, 23.04. 2:00 840 m 5/8 2/8 - - -
Do, 22.04. 20:00 1290 m 6/8 6/8 - - -
Do, 22.04. 14:00 1290 m 5/8 5/8 - - -
Do, 22.04. 8:00 1050 m 8/8 8/8 - - -
Do, 22.04. 2:00 1050 m 1/8 1/8 - - -
Mi, 21.04. 20:00 7500 m 3/8 0/8 - - -
Mi, 21.04. 14:00 1500 m 1/8 1/8 - - -
Ortszeit Bedeckungsgrad in Achtel und Wolkenuntergrenze
Fr, 23.04. 10:00 8(720m)
Fr, 23.04. 9:50 8(720m)
Fr, 23.04. 9:40 8(750m)
Fr, 23.04. 9:30 8(780m)
Fr, 23.04. 9:20 8(780m)
Fr, 23.04. 9:10 8(780m)
Fr, 23.04. 9:00 8(780m)
Fr, 23.04. 8:30 8(750m)
Fr, 23.04. 8:00 8(780m)
Fr, 23.04. 7:30 7(810m)
Fr, 23.04. 7:00 2(810m)
Ortszeit Luftdruck NN (hPa) Tendenz (hPa in 3 Std.)
Fr, 23.04. 8:00 1030 + 1,0
Fr, 23.04. 2:00 1028 + 0,4
Do, 22.04. 20:00 1026 + 0,5
Do, 22.04. 14:00 1026 + 0,1
Do, 22.04. 8:00 1025 + 0,9
Do, 22.04. 2:00 1023 + 1,1
Mi, 21.04. 20:00 1020 + 1,4
Mi, 21.04. 14:00 1018 + 0,3
Ortszeit Luftdruck NN (hPa) Tendenz (hPa in 3 Std.)
Fr, 23.04. 10:00 1030 + 1,1
Fr, 23.04. 9:50 1030 keine Meldung
Fr, 23.04. 9:40 1030 keine Meldung
Fr, 23.04. 9:30 1030 + 1,3
Fr, 23.04. 9:20 1030 keine Meldung
Fr, 23.04. 9:10 1030 keine Meldung
Fr, 23.04. 9:00 1030 + 1,1
Fr, 23.04. 8:30 1030 + 1,1
Fr, 23.04. 8:00 1030 + 1,0
Fr, 23.04. 7:30 1030 + 1,0
Fr, 23.04. 7:00 1029 + 0,8
Ortszeit Schneehöhe (cm)
Fr, 23.04. 8:00 0
Fr, 23.04. 2:00 0
Do, 22.04. 20:00 0
Do, 22.04. 14:00 0
Do, 22.04. 8:00 0
Do, 22.04. 2:00 0
Mi, 21.04. 20:00 0
Mi, 21.04. 14:00 0
Ortszeit Schneehöhe (cm)
Fr, 23.04. 10:00 0
Fr, 23.04. 9:50 0
Fr, 23.04. 9:40 0
Fr, 23.04. 9:30 0
Fr, 23.04. 9:20 0
Fr, 23.04. 9:10 0
Fr, 23.04. 9:00 0
Fr, 23.04. 8:30 0
Fr, 23.04. 8:00 0
Fr, 23.04. 7:30 0
Fr, 23.04. 7:00 0
Link zu dieser Seite / Seite empfehlen

Das Wetter in ...